User: anonymous   Login
Location: Unspecified
(0.0000°N, 0.0000°E)
Time: 22:20:04
(UTC+00:00)
Language:

OBJECT AP - Orbit

View from above orbital plane
View from above orbital plane
View from above satellite
View from above satellite

Ground track
Ground track

The orbit is defined by the following mean orbital elements,

1 57203U          26145.58836402 +.00000000 +00000-0 +41212-3 0 00007
2 57203  97.5099 212.5057 0009167 151.3289 208.8458 15.31404967    07
Epoch (UTC): 25 May 2026 14:07:14
Eccentricity: 0.0009167
inclination: 97.5099°
perigee height: 465 km
apogee height: 478 km
right ascension of ascending node: 212.5057°
argument of perigee: 151.3289°
revolutions per day: 15.31404967
mean anomaly at epoch: 208.8458°

The dashed part of the orbit path shows where the satellite is in the earth's shadow,  

DLR